Ketchikan, AK

10:02 PM AKDT on October 15, 2018 (GMT -0800)
Ketchikan International

Weather History for PAKT - May, 2018

Change the Weather History Date:

Wednesday, May 23, 2018

  Actual Average Record
Temperature  
Mean Temperature 50 °F -  
Max Temperature 54 °F 56 °F 82 °F (1969)
Min Temperature 48 °F 40 °F 34 °F (1972)
Degree Days  
Heating Degree Days 14    
Moisture  
Dew Point 49 °F    
Average Humidity 95    
Maximum Humidity 100    
Minimum Humidity 82    
Precipitation  
Precipitation 0.11 in - - ()
Sea Level Pressure  
Sea Level Pressure 29.90 in    
Wind  
Wind Speed 6 mph (North)    
Max Wind Speed 13 mph    
Max Gust Speed -    
Visibility 7 miles    
Events Rain    
Averages and records for this station are not official NWS values.
T = Trace of Precipitation, MM = Missing Value Source: NWS Daily Summary

Daily Weather History Graph

Daily Weather History Graph

Search for Another Location

Airport or City:

Astronomy

May. 23, 2018 Rise Set
Actual Time 4:24 AM AKDT 9:04 PM AKDT
Civil Twilight 3:32 AM AKDT 9:56 PM AKDT
Nautical Twilight 2:06 AM AKDT 11:24 PM AKDT
Astronomical Twilight Sun does not rise Sun does not rise
Moon 1:57 PM AKDT (5/23) 2:48 AM AKDT (5/23)
Length of Visible Light 18h 24m
Length of Day
16h 40m
Waxing Gibbous, 68% of the Moon is Illuminated
May 23
Waxing Gibbous
May 29
Full
Jun 6
Last Quarter
Jun 13
New
Jun 20
First Quarter

Hourly Weather History & Observations

Time (AKDT) Temp. Dew Point Humidity Pressure Visibility Wind Dir Wind Speed Gust Speed Precip Events Conditions
12:02 AM 48.9 °F 48.9 °F 100% 29.93 in 6.0 mi NW 3.5 mph - 0.00 in   Overcast
12:27 AM 48.9 °F 48.9 °F 100% 29.93 in 10.0 mi NNW 4.6 mph - 0.01 in   Overcast
12:53 AM 50.0 °F 48.9 °F 96% 29.93 in 10.0 mi North 4.6 mph - 0.01 in   Overcast
1:07 AM 50.0 °F 48.9 °F 96% 29.93 in 10.0 mi NNW 4.6 mph - N/A   Overcast
1:53 AM 50.0 °F 48.9 °F 96% 29.93 in 10.0 mi NNW 6.9 mph - N/A   Overcast
2:12 AM 50.0 °F 48.9 °F 96% 29.92 in 6.0 mi NNW 6.9 mph - N/A   Overcast
2:53 AM 48.9 °F 48.0 °F 97% 29.92 in 5.0 mi North 6.9 mph - 0.01 in Rain Light Rain
3:14 AM 48.9 °F 48.0 °F 97% 29.92 in 8.0 mi North 9.2 mph - 0.00 in Rain Light Rain
3:53 AM 48.9 °F 48.0 °F 97% 29.91 in 9.0 mi NNW 10.4 mph - 0.01 in Rain Light Rain
4:53 AM 48.9 °F 48.0 °F 97% 29.91 in 6.0 mi NNW 8.1 mph - 0.03 in Rain Light Rain
5:53 AM 48.9 °F 48.0 °F 97% 29.89 in 2.5 mi NNW 8.1 mph - 0.01 in   Overcast
6:09 AM 48.9 °F 48.0 °F 97% 29.88 in 3.0 mi NNW 8.1 mph - 0.01 in   Overcast
6:53 AM 48.9 °F 48.9 °F 100% 29.88 in 3.0 mi NNW 9.2 mph - 0.01 in   Overcast
7:53 AM 48.2 °F 48.2 °F 100% 29.87 in 3.0 mi North 9.2 mph - N/A   Overcast
8:53 AM 50.0 °F 48.2 °F 94% 29.86 in 3.0 mi NNW 9.2 mph - N/A Rain Light Rain
9:53 AM 50.0 °F 48.9 °F 96% 29.86 in 3.0 mi NNW 12.7 mph - 0.01 in Rain Light Rain
10:53 AM 50.0 °F 48.2 °F 94% 29.86 in 3.0 mi NNW 9.2 mph - N/A   Overcast
11:02 AM 50.0 °F 50.0 °F 100% 29.85 in 5.0 mi NW 9.2 mph - N/A   Overcast
11:53 AM 50.0 °F 50.0 °F 100% 29.85 in 5.0 mi NNW 11.5 mph - N/A   Overcast
12:53 PM 51.8 °F 50.0 °F 94% 29.85 in 3.0 mi NW 6.9 mph - N/A Rain Light Rain
1:53 PM 51.8 °F 50.0 °F 94% 29.86 in 3.0 mi NW 4.6 mph - N/A   Overcast
2:53 PM 51.8 °F 50.0 °F 94% 29.86 in 3.0 mi North 4.6 mph - N/A Rain Light Rain
3:53 PM 51.8 °F 51.8 °F 100% 29.87 in 10.0 mi ESE 9.2 mph - N/A   Overcast
4:53 PM 53.6 °F 51.8 °F 94% 29.87 in 10.0 mi SE 6.9 mph - N/A   Overcast
5:53 PM 53.6 °F 50.0 °F 88% 29.87 in 10.0 mi ESE 5.8 mph - N/A   Overcast
6:53 PM 53.6 °F 50.0 °F 88% 29.88 in 10.0 mi SE 4.6 mph - N/A   Partly Cloudy
7:53 PM 53.6 °F 48.2 °F 82% 29.89 in 10.0 mi SE 6.9 mph - N/A   Overcast
8:53 PM 51.8 °F 50.0 °F 94% 29.90 in 10.0 mi SE 5.8 mph - N/A   Overcast
9:08 PM 52.0 °F 50.0 °F 93% 29.90 in 10.0 mi SE 6.9 mph - N/A   Overcast
9:19 PM 52.0 °F 50.0 °F 93% 29.90 in 6.0 mi SE 8.1 mph - 0.01 in Rain Light Rain
9:29 PM 52.0 °F 50.0 °F 93% 29.91 in 7.0 mi SE 8.1 mph - 0.01 in Rain Light Rain
9:53 PM 51.8 °F 50.0 °F 94% 29.91 in 10.0 mi ESE 6.9 mph - N/A   Overcast
10:45 PM 50.0 °F 48.9 °F 96% 29.92 in 10.0 mi SE 5.8 mph - 0.02 in   Overcast
10:53 PM 50.0 °F 48.9 °F 96% 29.93 in 10.0 mi SE 4.6 mph - 0.02 in   Overcast
11:25 PM 50.0 °F 48.0 °F 93% 29.93 in 10.0 mi Calm Calm - N/A   Overcast
11:34 PM 50.0 °F 48.0 °F 93% 29.93 in 10.0 mi Calm Calm - N/A   Overcast
11:42 PM 50.0 °F 48.0 °F 93% 29.93 in 10.0 mi Calm Calm - N/A   Overcast
11:53 PM 50.0 °F 45.0 °F 83% 29.94 in 10.0 mi NNW 8.1 mph - N/A   Overcast